Regional Weather Roundup
Issued by NWS

Home | Current Version | Previous Version | Graphics & Text | Print | Product List | Glossary On
Versions: 1 2 3 4 5 6 7 8 9 10 11 12 13 14 15 16 17 18 19 20 21 22 23 24 25 26 27
000
ASUS45 KPSR 160210
RWRAZ

ARIZONA HOURLY REGIONAL WEATHER ROUNDUP
NATIONAL WEATHER SERVICE PHOENIX AZ
700 PM MST TUE AUG 15 2017

NOTE: FAIR INDICATES FEW OR NO CLOUDS BELOW 12,000 FEET WITH NO
SIGNIFICANT WEATHER AND/OR OBSTRUCTIONS TO VISIBILITY.

AZZ001>003-036-160300-
NORTHWEST ARIZONA

CITY           SKY/WX    TMP DP  RH WIND       PRES   REMARKS
BULLHEAD CITY  CLEAR     99  32   9 SE10      29.66S
KINGMAN        CLEAR     84  40  21 SW17      29.88S
$$

AZZ004>008-015-016-018-160300-
NORTH CENTRAL ARIZONA

CITY           SKY/WX    TMP DP  RH WIND       PRES   REMARKS
GRAND CANYON   CLEAR     68  24  19 SW8       30.12R
WILLIAMS       CLEAR     66  19  16 SW7G14    30.13R
PRESCOTT       CLEAR     75  26  16 S10       30.02S
FLAGSTAFF      CLEAR     62  36  37 W5        30.16R
PAYSON           N/A     77  36  22 W10       30.06R
PAGE           CLEAR     83  21  10 S6        29.91S
$$

AZZ009>014-017-160300-
NORTHEAST ARIZONA

CITY           SKY/WX    TMP DP  RH WIND       PRES   REMARKS
WINSLOW        MOCLDY    78  36  21 SW12      30.01R
SAINT JOHNS    MOCLDY    77  36  22 W13       30.05R
WINDOW ROCK    PTCLDY    68  38  33 SW7       30.13S
SHOW LOW       PTCLDY    68  39  34 SW10      30.13S
$$

AZZ540-542>544-546-548-160300-
GREATER PHOENIX AREA

CITY           SKY/WX    TMP DP  RH WIND       PRES   REMARKS
PHOENIX        PTCLDY    98  33  10 NW9G21    29.71R
BUCKEYE        CLEAR     95  28   9 W9        29.72S
GLENDALE       PTCLDY    99  28   8 SW7       29.73S
LUKE AFB       CLEAR     96  32  10 W6        29.71S
DEER VALLEY    CLEAR     96  25   8 W9        29.74S
SCOTTSDALE     CLEAR     96  36  12 W10       29.76R
MESA-GATEWAY   PTCLDY    97  46  17 SW5       29.75
$$

AZZ539-553-160300-
SOUTHWEST MARICOPA COUNTY AND PINAL COUNTY

CITY           SKY/WX    TMP DP  RH WIND       PRES   REMARKS
CASA GRANDE    CLEAR     95  54  25 NW5       29.75S
GILA BEND      CLEAR     99   3   3 W15       29.70R
$$

AZZ503-504-507>509-160300-
SOUTHEAST ARIZONA

CITY           SKY/WX    TMP DP  RH WIND       PRES   REMARKS
TUCSON         NOT AVBL
DAVIS-MONTHAN  CLEAR     91  50  24 SW8       29.86R
RYAN FIELD     CLEAR     93  39  15 SW14      29.85R
NOGALES        CLEAR     81  55  40 S6        29.99R
SIERRA VISTA   CLEAR     79  53  40 W13       30.05R
DOUGLAS        CLEAR     79  53  40 W9        30.00R
SAFFORD        CLEAR     88  49  25 W14       29.87R
$$

AZZ532-160300-
SOUTHWEST ARIZONA

CITY           SKY/WX    TMP DP  RH WIND       PRES   REMARKS
YUMA           NOT AVBL
$$

CAZ041-043-047-048-061-525>527-560>570-160300-
SOUTHERN CALIFORNIA

CITY           SKY/WX    TMP DP  RH WIND       PRES   REMARKS
DOWNTOWN L.A.  CLEAR     72  60  66 W6        29.87S
L.A. AIRPORT   PTCLDY    69  61  75 W9        29.88S
SAN DIEGO      MOCLDY    67  57  70 SW7       29.91F
BURBANK        CLEAR     71  57  61 S9        29.87S
ONTARIO        PTCLDY    72  57  59 W15G21    29.87R
RIVERSIDE      CLEAR     73  58  59 W13       29.86S
PALM SPRINGS   CLEAR     93  45  19 NW16G29   29.68S
EL CENTRO NAS  CLEAR     92  39  15 W21       29.71S
IMPERIAL       CLEAR     91  46  21 W22G28    29.66F
BLYTHE         CLEAR     97  35  11 SW18      29.67S
NEEDLES        CLEAR    100  42  13 SE14      29.67S
$$

NVZ020-UTZ003-160300-
SOUTHERN NEVADA-UTAH

CITY           SKY/WX    TMP DP  RH WIND       PRES   REMARKS
LAS VEGAS      CLEAR     94  31  10 E14       29.74R
SALT LAKE CITY PTCLDY    78  37  22 W8        29.93R
$$

NMZ009-TXZ055-160300-
NEW MEXICO-WEST TEXAS

CITY           SKY/WX    TMP DP  RH WIND       PRES   REMARKS
ALBUQUERQUE    CLOUDY    79  35  20 NW18G29   30.02R
EL PASO        LGT RAIN  79  61  53 CALM      29.92R
$$


........................KEY........................
SKY/WX - SKY CONDITION/WEATHER
TMP    - TEMPERATURE IN FAHRENHEIT
DP     - DEW POINT IN FAHRENHEIT
RH     - RELATIVE HUMIDITY IN PERCENT
WIND   - DIRECTION AND SPEED IN MILES PER HOUR (MPH)
VRB    - VARIABLE WIND DIRECTION
PRES   - MEAN SEA LEVEL PRESSURE IN INCHES OF MERCURY
         F - FALLING PRESSURE   R - RISING PRESSURE
         S - STEADY PRESSURE
VSB    - VISIBILITY IN MILES
HX     - HEAT INDEX IN FAHRENHEIT
WCI    - WIND CHILL INDEX IN FAHRENHEIT
TC     - TEMPERATURE IN CELSIUS WHICH IS ALSO KNOWN AS
         TEMPERATURE IN CENTIGRADE
AFB    - AIR FORCE BASE
         LUKE AFB IS LUKE AIR FORCE BASE
         DAVIS-MONTHAN IS DAVIS-MONTHAN AIR FORCE BASE
NAS    - NAVAL AIR STATION
         EL CENTRO NAS IS EL CENTRO NAVAL AIR STATION
N/A    - NOT AVAILABLE





USA.gov is the U.S. government's official web portal to all federal, state and local government web resources and services.